Hourly Weather Ischgl

Today, 27 November, Friday

Time Temperature Precipitation Wind Pressure Humidity
00:00 -4°C° 0 mm 1 mps 572 mmHg 53%
01:00 -6°C° 0 mm 1 mps 572 mmHg 53%
02:00 -6°C° 0 mm 1 mps 572 mmHg 53%
03:00 -6°C° 0 mm 1 mps 572 mmHg 52%
04:00 -6°C° 0 mm 1 mps 572 mmHg 52%
05:00 -6°C° 0 mm 1 mps 572 mmHg 52%
06:00 -6°C° 0 mm 1 mps 571 mmHg 52%
07:00 -6°C° 0 mm 1 mps 571 mmHg 52%
08:00 -4°C° 0 mm 1 mps 572 mmHg 54%
09:00 -2°C° 0 mm 1 mps 573 mmHg 56%
10:00 -1°C° 0 mm 1 mps 573 mmHg 57%
11:00 0°C° 0 mm 1 mps 574 mmHg 59%
12:00 0°C° 0 mm 1 mps 574 mmHg 60%
13:00 +1°C° 0 mm 1 mps 574 mmHg 62%
14:00 0°C° 0 mm 1 mps 573 mmHg 63%
15:00 -1°C° 0 mm 1 mps 572 mmHg 65%
16:00 -2°C° 0 mm 1 mps 572 mmHg 66%
17:00 -3°C° 0 mm 1 mps 572 mmHg 66%
18:00 -4°C° 0 mm 1 mps 571 mmHg 65%
19:00 -4°C° 0 mm 1 mps 571 mmHg 65%
20:00 -4°C° 0 mm 1 mps 571 mmHg 64%
21:00 -7°C° 0 mm 2 mps 571 mmHg 63%
22:00 -7°C° 0 mm 2 mps 571 mmHg 63%
23:00 -7°C° 0 mm 2 mps 571 mmHg 63%

Tomorrow, 28 November, Saturday

Time Temperature Precipitation Wind Pressure Humidity
00:00 -7°C° 0 mm 2 mps 571 mmHg 63%
01:00 -7°C° 0 mm 2 mps 571 mmHg 63%
02:00 -7°C° 0 mm 2 mps 571 mmHg 63%
03:00 -7°C° 0 mm 2 mps 571 mmHg 63%
04:00 -6°C° 0 mm 1 mps 570 mmHg 63%
05:00 -6°C° 0 mm 1 mps 570 mmHg 62%
06:00 -6°C° 0 mm 1 mps 570 mmHg 62%
07:00 -6°C° 0 mm 1 mps 570 mmHg 61%
08:00 -3°C° 0 mm 1 mps 571 mmHg 61%
09:00 -2°C° 0 mm 1 mps 571 mmHg 60%
10:00 -1°C° 0 mm 1 mps 572 mmHg 60%
11:00 0°C° 0 mm 1 mps 572 mmHg 62%
12:00 +1°C° 0 mm 1 mps 572 mmHg 63%
13:00 +1°C° 0 mm 0 mps 572 mmHg 65%
14:00 -1°C° 0 mm 0 mps 571 mmHg 65%
15:00 -2°C° 0 mm 0 mps 571 mmHg 65%
16:00 -3°C° 0 mm 0 mps 570 mmHg 65%
17:00 -2°C° 0 mm 1 mps 570 mmHg 64%
18:00 -3°C° 0 mm 1 mps 570 mmHg 63%
19:00 -4°C° 0 mm 1 mps 569 mmHg 62%
20:00 -4°C° 0 mm 1 mps 569 mmHg 61%
21:00 -4°C° 0 mm 1 mps 569 mmHg 60%
22:00 -4°C° 0 mm 1 mps 569 mmHg 59%
23:00 -4°C° 0 mm 1 mps 569 mmHg 58%

Day after tomorrow, 29 November, Sunday

Time Temperature Precipitation Wind Pressure Humidity
00:00 -4°C° 0 mm 1 mps 569 mmHg 58%
01:00 -4°C° 0 mm 1 mps 569 mmHg 57%
02:00 -4°C° 0 mm 1 mps 569 mmHg 57%
03:00 -6°C° 0 mm 1 mps 569 mmHg 56%
04:00 -6°C° 0 mm 1 mps 569 mmHg 56%
05:00 -6°C° 0 mm 1 mps 569 mmHg 56%
06:00 -6°C° 0 mm 0 mps 569 mmHg 55%
07:00 -6°C° 0 mm 0 mps 569 mmHg 55%
08:00 -5°C° 0 mm 0 mps 569 mmHg 55%
09:00 -4°C° 0 mm 0 mps 570 mmHg 55%
10:00 -3°C° 0 mm 0 mps 571 mmHg 55%
11:00 -2°C° 0 mm 0 mps 571 mmHg 55%
12:00 -1°C° 0 mm 0 mps 572 mmHg 56%
13:00 0°C° 0 mm 1 mps 572 mmHg 56%
14:00 -2°C° 0 mm 0 mps 571 mmHg 60%
15:00 -3°C° 0 mm 0 mps 571 mmHg 65%
16:00 -5°C° 0 mm 0 mps 570 mmHg 70%
17:00 -5°C° 0 mm 0 mps 570 mmHg 68%
18:00 -6°C° 0 mm 1 mps 570 mmHg 66%
19:00 -6°C° 0 mm 1 mps 570 mmHg 65%
20:00 -7°C° 0 mm 1 mps 570 mmHg 63%
21:00 -7°C° 0 mm 1 mps 570 mmHg 61%
22:00 -7°C° 0 mm 1 mps 570 mmHg 59%
23:00 -7°C° 0 mm 1 mps 570 mmHg 57%

30 November, Monday

Time Temperature Precipitation Wind Pressure Humidity
00:00 -7°C° 0 mm 1 mps 571 mmHg 54%
01:00 -7°C° 0 mm 1 mps 571 mmHg 52%
02:00 -7°C° 0 mm 1 mps 571 mmHg 49%
03:00 -7°C° 0 mm 1 mps 571 mmHg 45%
04:00 -7°C° 0 mm 1 mps 571 mmHg 42%
05:00 -7°C° 0 mm 1 mps 571 mmHg 40%
06:00 -8°C° 0 mm 1 mps 571 mmHg 37%
07:00 -8°C° 0 mm 1 mps 571 mmHg 35%
08:00 -6°C° 0 mm 0 mps 572 mmHg 36%
09:00 -5°C° 0 mm 0 mps 573 mmHg 37%
10:00 -4°C° 0 mm 0 mps 574 mmHg 38%
11:00 -3°C° 0 mm 0 mps 574 mmHg 38%
12:00 -2°C° 0 mm 0 mps 575 mmHg 39%
13:00 -1°C° 0 mm 0 mps 575 mmHg 39%
14:00 -3°C° 0 mm 0 mps 575 mmHg 42%
15:00 -4°C° 0 mm 0 mps 574 mmHg 44%
16:00 -5°C° 0 mm 0 mps 573 mmHg 47%
17:00 -6°C° 0 mm 0 mps 573 mmHg 43%
18:00 -6°C° 0 mm 0 mps 573 mmHg 40%
19:00 -7°C° 0 mm 0 mps 573 mmHg 37%
20:00 -7°C° 0 mm 0 mps 573 mmHg 35%
21:00 -7°C° 0 mm 0 mps 574 mmHg 33%
22:00 -7°C° 0 mm 0 mps 574 mmHg 31%
23:00 -7°C° 0 mm 0 mps 574 mmHg 30%

1 December, Tuesday

Time Temperature Precipitation Wind Pressure Humidity
00:00 -8°C° 0 mm 0 mps 573 mmHg 29%
01:00 -8°C° 0 mm 0 mps 573 mmHg 28%
02:00 -8°C° 0 mm 1 mps 573 mmHg 27%
03:00 -8°C° 0 mm 1 mps 573 mmHg 27%
04:00 -8°C° 0 mm 1 mps 573 mmHg 26%
05:00 -8°C° 0 mm 1 mps 573 mmHg 26%
06:00 -8°C° 0 mm 1 mps 573 mmHg 26%
07:00 -8°C° 0 mm 1 mps 573 mmHg 26%
08:00 -7°C° 0 mm 1 mps 574 mmHg 29%
09:00 -6°C° 0 mm 1 mps 574 mmHg 32%
10:00 -4°C° 0 mm 1 mps 575 mmHg 35%
11:00 -3°C° 0 mm 1 mps 575 mmHg 35%
12:00 -2°C° 0 mm 1 mps 575 mmHg 36%
13:00 -1°C° 0 mm 1 mps 576 mmHg 36%
14:00 -2°C° 0 mm 1 mps 575 mmHg 39%
15:00 -3°C° 0 mm 1 mps 574 mmHg 41%
16:00 -4°C° 0 mm 1 mps 574 mmHg 44%
17:00 -4°C° 0 mm 1 mps 574 mmHg 43%
18:00 -6°C° 0 mm 1 mps 574 mmHg 43%
19:00 -6°C° 0 mm 1 mps 574 mmHg 43%
20:00 -6°C° 0 mm 1 mps 574 mmHg 44%
21:00 -6°C° 0 mm 1 mps 574 mmHg 46%
22:00 -6°C° 0 mm 1 mps 574 mmHg 48%
23:00 -6°C° 0 mm 1 mps 574 mmHg 51%

2 December, Wednesday

Time Temperature Precipitation Wind Pressure Humidity
00:00 -6°C° 0 mm 1 mps 573 mmHg 55%
01:00 -7°C° 0 mm 1 mps 573 mmHg 59%
02:00 -7°C° 0 mm 1 mps 573 mmHg 63%
03:00 -7°C° 0 mm 1 mps 573 mmHg 68%
04:00 -7°C° 0 mm 1 mps 573 mmHg 72%
05:00 -7°C° 0 mm 1 mps 572 mmHg 75%
06:00 -7°C° 0 mm 1 mps 572 mmHg 77%
07:00 -7°C° 0 mm 1 mps 572 mmHg 80%
08:00 -6°C° 0 mm 1 mps 572 mmHg 79%
09:00 -4°C° 0 mm 1 mps 573 mmHg 79%
10:00 -5°C° 0 mm 0 mps 573 mmHg 78%
11:00 -4°C° 0 mm 0 mps 573 mmHg 77%
12:00 -3°C° 0 mm 0 mps 573 mmHg 76%
13:00 -2°C° 0 mm 0 mps 573 mmHg 75%
14:00 -3°C° 0 mm 0 mps 572 mmHg 78%
15:00 -4°C° 0 mm 0 mps 572 mmHg 81%
16:00 -5°C° 0 mm 0 mps 571 mmHg 83%
17:00 -4°C° 0 mm 1 mps 571 mmHg 84%
18:00 -4°C° 0 mm 1 mps 571 mmHg 84%
19:00 -6°C° 0 mm 1 mps 570 mmHg 84%
20:00 -6°C° 0 mm 1 mps 570 mmHg 83%
21:00 -6°C° 0 mm 1 mps 570 mmHg 82%
22:00 -7°C° 0 mm 2 mps 570 mmHg 81%
23:00 -7°C° 0 mm 2 mps 570 mmHg 81%
Show more

We Need Your Consent

Meteoprog and our Service Providers may store and access personal data such as cookies, device identifiers or other similar technologies on your device and process such data to personalise content and ads, as well as provide social media features and to analyse the traffic.

  • Store and/or access information on your device

    Cookies, device identifiers or other information can be stored or accessed on your device for the purposes indicated above.

  • Personalised ads and content, ad and content measurement, audience insights, and products development

    Ads and content can be personalised based on a profile. More data can be added to better personalise ads and content. Ad and content performance can be measured. Insights about the audience who saw the ads and content can be derived. Such data can be used to develop or improve user’s experience, systems and software.

By clicking ‘I Agree’ you will allow the use of indicated cookies, device identifiers, web beacons or other similar technologies. Your settings can be changed in the browser on your device.

For certain purposes, legitimate interests may be relied on, rather than consent. You can read more about this in our Privacy and Cookie Policy.